User: anonymous   Login
Location: Hopkins Observatory
(42.6965°N, 73.1843°W)
Time: 19:02:04
(UTC-05:00)
Language:

UOSAT-12 - Orbit

View from above orbital plane
View from above orbital plane
View from above satellite
View from above satellite

Ground track
Ground track

The orbit data is extracted from the following two-line orbital elements,

1 25693U 99021A   14325.86878041  .00000675  00000-0  10607-3 0  6692
2 25693 064.5558 136.7982 0049678 267.8471 195.8429 14.80152378841252
Epoch (UTC): 21 November 2014 20:51:02
Eccentricity: 0.0049678
inclination: 64.5558°
perigee height: 594 km
apogee height: 663 km
right ascension of ascending node: 136.7982°
argument of perigee: 267.8471°
revolutions per day: 14.80152378
mean anomaly at epoch: 195.8429°
orbit number at epoch: 84125

The dashed part of the orbit path shows where the satellite is in the earth's shadow,  

DLR